Theta_e
311 311 312 312 314 316 316 313 313 312 312 312 312 312 312 312 313 313 314 315 318 319 317 315 317 318 319 319 319 317 312 314 324 334 336 336 334 334 335 332 334 333 329 330 321
311 312 312 312 312 314 316 316 315 314 314 313 313 313 312 313 313 314 315 315 318 319 316 316 318 319 320 318 318 315 313 318 323 332 334 336 334 336 335 333 334 334 332 333 326
312 312 312 312 312 313 315 316 317 319 320 320 319 316 315 318 324 322 317 319 319 316 316 318 319 320 320 319 317 315 316 321 333 335 335 334 336 336 334 334 334 332 335 335 333
312 312 312 312 312 313 313 316 317 319 319 319 319 319 320 321 324 326 323 320 317 316 317 318 319 319 316 317 318 318 334 335 335 336 336 336 337 338 335 336 334 332 334 336 337
312 312 312 312 313 313 313 314 316 318 319 319 319 319 320 322 326 327 326 323 320 316 317 317 320 319 317 317 318 317 336 336 336 336 336 337 335 334 335 336 334 333 334 334 336
312 313 313 313 313 313 315 316 318 318 318 320 319 319 321 323 325 322 319 322 319 316 317 319 320 319 319 317 318 331 337 336 335 335 334 333 333 334 336 336 334 334 334 334 335
312 313 313 313 313 314 319 320 319 321 320 318 319 319 321 328 327 323 317 316 316 317 319 319 319 319 318 318 336 336 337 336 335 335 334 333 332 333 337 335 334 335 334 334 334
312 312 313 313 313 314 319 320 320 319 322 318 317 318 321 326 328 327 321 317 318 318 319 319 319 319 319 336 326 327 331 338 334 335 334 333 331 330 336 336 335 335 335 335 335
312 312 312 313 314 314 318 319 319 321 322 319 319 319 320 325 327 325 323 319 319 319 319 319 319 317 316 317 319 317 337 327 337 335 333 334 335 332 335 336 338 339 339 339 338
312 312 312 312 313 314 319 319 319 321 320 319 320 319 319 324 322 324 323 322 321 321 320 319 318 312 308 314 326 327 319 321 337 335 333 334 334 332 335 336 339 343 344 344 343
313 312 312 312 313 314 318 319 319 318 318 318 318 318 318 321 322 323 323 323 322 320 318 317 314 313 313 314 314 315 316 317 328 323 335 334 334 333 335 338 339 345 346 346 346
313 310 310 311 312 314 316 318 314 315 316 318 318 318 318 318 319 323 323 321 321 319 317 315 316 315 314 313 314 314 314 314 315 317 333 332 334 333 335 338 339 343 346 347 347
309 308 309 310 312 315 315 315 314 317 316 318 319 318 318 318 319 323 323 321 319 318 317 316 318 317 317 316 316 315 317 317 317 325 327 333 335 337 336 337 340 341 344 346 346
306 307 308 310 311 311 314 313 315 319 313 318 321 321 318 321 321 324 324 322 319 318 315 317 317 319 319 318 316 319 315 318 319 321 321 331 326 328 336 337 339 342 343 344 346
306 307 308 309 309 310 310 313 316 319 312 324 322 321 319 320 321 321 323 322 318 318 317 319 319 318 319 319 316 319 316 317 320 318 319 326 321 321 332 338 338 339 342 343 344
307 308 309 309 310 310 310 312 319 314 315 323 320 319 320 320 321 321 321 321 320 319 318 317 319 319 319 319 318 318 317 315 313 314 318 318 324 317 321 337 338 338 340 342 343
309 309 310 310 310 310 310 314 312 315 315 324 321 321 318 320 320 320 319 318 317 318 318 318 319 319 320 321 318 316 316 317 319 318 320 316 317 317 317 318 329 335 338 340 341
311 311 311 311 311 311 309 312 315 313 320 321 319 319 318 318 319 319 318 317 316 316 316 317 318 320 320 320 319 317 316 317 319 317 316 317 320 320 319 324 328 331 328 330 340
311 312 313 312 313 310 314 311 310 311 318 317 316 319 319 319 320 319 318 317 317 315 318 316 318 318 321 320 320 318 318 315 315 315 318 316 319 324 325 325 336 335 327 328 339
308 311 311 312 312 308 311 308 311 315 316 316 316 319 320 319 320 320 319 319 318 315 317 318 319 319 321 320 319 319 316 320 315 321 322 319 321 325 325 325 332 336 336 337 339
306 309 312 316 309 317 310 309 314 316 317 317 317 318 318 319 319 319 319 323 321 320 315 315 317 319 321 321 319 319 318 315 315 316 319 320 320 317 321 323 329 333 336 337 338
304 304 312 311 312 310 311 313 317 318 318 318 317 316 317 318 319 319 318 321 322 322 320 317 314 317 318 319 319 319 317 315 318 319 316 317 318 317 320 321 324 332 335 336 336
303 304 308 310 310 309 313 316 318 319 318 318 318 317 317 319 319 317 318 320 322 321 321 318 317 318 319 318 320 322 319 316 314 314 318 320 320 318 320 321 323 326 332 335 336
303 303 309 313 311 313 315 315 317 319 318 318 317 317 318 318 315 318 318 320 323 323 323 321 315 317 319 318 319 322 321 318 318 318 319 318 319 320 321 322 323 326 327 328 334
303 302 308 308 310 309 311 314 317 318 317 317 318 318 319 319 317 315 316 319 321 324 319 317 320 318 319 318 320 322 323 320 321 320 322 322 319 320 320 319 321 323 324 324 326
302 308 310 310 310 309 312 314 317 317 317 318 318 317 315 316 317 318 319 318 318 321 321 317 320 319 323 322 322 323 322 321 321 321 320 320 320 317 320 322 322 323 323 323 324
304 308 308 307 309 311 310 313 315 313 315 315 314 314 314 314 317 319 318 321 319 320 318 319 319 320 322 322 323 322 322 322 322 319 320 321 319 318 319 318 320 322 322 323 324
Wind_Speed
22 22 21 22 22 23 23 18 15 13 11 9 8 5 3 2 4 6 6 4 9 4 4 3 6 5 1 3 5 3 4 2 5 8 5 7 4 11 7 17 6 7 15 27 28
22 22 21 21 21 21 21 19 16 14 12 10 9 7 5 5 5 5 3 8 8 5 5 7 8 3 3 4 5 4 4 9 7 8 8 14 10 15 7 16 4 10 25 27 27
22 22 22 21 21 20 19 17 15 13 12 11 10 9 7 6 3 5 6 8 8 6 7 6 3 3 4 5 6 6 5 4 4 12 17 8 8 9 11 3 7 28 33 30 28
22 22 22 21 21 20 18 16 14 13 12 11 10 10 8 4 3 2 2 7 6 8 7 4 1 3 3 3 3 2 1 2 6 6 6 9 9 4 14 4 12 29 30 31 29
22 22 22 22 21 20 19 15 13 12 10 10 10 11 9 4 3 3 3 9 8 8 6 2 2 3 2 2 1 3 0 6 7 10 9 8 5 4 18 7 19 29 30 30 27
22 22 22 22 21 20 17 14 13 12 10 9 9 10 9 2 3 5 2 9 8 9 6 2 2 3 2 1 1 3 8 7 9 8 6 6 1 5 11 11 23 29 31 29 27
23 23 22 22 21 20 14 16 15 11 9 7 9 11 8 2 1 3 2 6 8 7 3 1 3 3 3 4 5 4 5 7 8 6 3 1 3 4 14 19 27 28 28 27 27
24 23 22 22 21 19 15 16 16 13 6 6 7 10 6 5 4 4 3 7 8 6 4 2 5 2 3 14 4 5 6 3 3 3 4 5 9 5 16 20 25 24 26 26 25
25 25 23 22 20 18 15 14 17 12 1 6 6 3 6 3 1 5 6 5 3 4 5 5 1 3 4 5 5 7 4 1 1 5 3 1 7 4 18 21 18 19 22 23 23
27 25 24 22 20 16 14 14 16 5 5 9 4 2 7 4 9 4 8 9 5 5 1 3 3 4 4 5 4 4 5 2 4 7 3 2 13 5 11 19 22 23 24 23 21
27 27 24 22 19 14 12 13 13 2 17 17 15 15 19 9 6 1 3 7 6 2 2 4 4 5 6 4 5 5 4 6 5 7 7 15 15 11 10 15 19 26 28 26 24
27 26 25 21 19 7 8 6 10 12 15 24 20 24 24 21 7 6 3 5 5 3 1 6 2 5 5 5 5 6 8 7 4 3 10 3 16 5 8 8 19 24 29 32 29
26 26 25 21 15 5 7 8 15 18 6 16 4 9 16 15 11 13 8 6 3 4 3 5 4 3 5 5 5 5 4 4 4 3 3 5 5 6 6 14 12 20 30 33 36
24 25 24 21 6 15 3 11 16 12 4 7 4 2 11 9 5 19 17 7 1 8 7 4 4 2 2 4 7 3 8 4 8 5 4 2 4 5 6 8 9 22 29 36 39
23 24 23 20 19 16 11 9 12 2 4 3 1 2 12 10 2 7 16 13 7 6 6 5 4 5 4 6 7 8 6 5 2 5 5 1 4 7 4 6 12 21 34 38 44
22 23 24 21 18 8 12 11 2 5 6 5 2 2 3 3 2 2 5 7 5 4 0 6 2 4 7 3 5 7 7 8 5 3 1 5 6 6 5 11 12 22 34 41 44
22 21 23 22 18 16 9 5 4 3 4 4 2 3 3 3 2 2 4 4 5 3 3 3 4 4 4 3 4 6 7 2 2 3 5 1 3 9 6 6 9 15 31 40 38
22 20 20 21 13 11 5 4 3 3 5 4 4 4 3 5 3 2 5 3 3 5 2 3 5 5 4 4 7 5 7 6 7 4 6 2 5 6 7 7 12 23 32 27 38
22 19 16 13 9 7 9 2 7 6 3 5 6 3 3 3 1 1 5 4 7 9 8 4 6 4 4 3 5 5 4 4 7 4 2 3 6 8 4 6 4 9 11 21 33
22 18 7 9 4 13 4 5 4 4 3 3 2 3 1 2 1 2 2 3 3 10 5 3 2 4 1 5 5 4 5 3 2 5 4 5 4 5 5 9 5 5 11 18 25
17 9 9 1 10 6 4 7 5 10 5 2 2 2 2 3 1 2 4 2 3 2 4 6 5 8 2 3 8 3 1 5 5 4 6 3 6 7 8 8 9 11 14 17 21
8 3 5 8 1 2 3 5 3 3 1 2 2 4 4 1 2 2 5 5 6 7 5 3 5 5 10 2 2 2 6 6 5 5 1 4 6 4 9 8 14 17 18 20 21
10 6 8 6 3 3 4 4 4 2 2 1 2 5 3 1 3 5 5 7 6 6 6 6 1 2 8 6 2 4 4 4 6 4 7 6 6 3 6 7 15 21 20 23 26
6 3 2 4 1 1 2 5 5 6 5 5 4 2 1 2 5 5 3 3 4 3 8 9 4 7 7 7 2 3 5 4 5 4 5 7 6 6 7 8 9 14 21 25 26
2 1 2 3 3 5 3 4 2 3 3 4 2 2 1 3 3 5 4 5 5 8 3 6 5 5 6 7 3 3 4 8 7 5 7 7 9 8 9 8 14 13 16 18 28
3 3 3 5 9 4 2 3 3 5 3 4 5 5 1 4 7 6 3 4 7 2 3 1 4 6 3 3 6 5 7 5 4 2 6 7 7 9 14 17 21 22 23 20 24
3 3 2 4 4 2 2 3 2 7 6 4 5 4 4 5 12 20 19 10 6 4 6 4 7 4 5 3 4 7 8 10 6 5 7 7 9 4 6 10 20 26 26 27 30
Wind_Direction
12 11 10 8 7 8 8 5 4 4 9 12 14 9 345 305 272 255 249 168 182 166 171 147 128 129 144 162 175 141 61 205 234 162 200 176 142 161 121 151 153 207 169 147 152
7 6 5 6 4 2 5 8 9 13 16 18 18 15 6 348 308 285 182 174 167 179 157 142 137 171 183 167 177 125 133 221 196 176 168 185 171 159 149 176 226 179 159 159 160
2 1 1 1 1 358 356 1 3 7 10 11 13 13 2 351 60 57 142 168 179 174 154 146 155 159 159 185 188 169 203 215 188 183 175 149 144 160 141 182 199 162 164 170 170
358 357 356 357 357 355 350 350 353 354 0 5 10 8 352 19 115 122 167 196 177 168 160 150 141 127 146 193 187 239 19 178 121 171 135 124 160 138 157 200 185 168 170 173 178
356 354 354 353 353 352 347 343 344 340 346 355 360 2 2 347 39 331 266 191 195 170 173 168 58 127 163 213 331 180 190 77 104 125 105 140 111 157 197 220 180 172 176 181 182
352 351 351 350 350 351 348 345 338 330 328 337 338 346 349 315 358 326 218 180 186 179 177 160 348 333 138 66 161 163 102 68 69 69 81 131 113 134 202 202 185 179 185 189 191
349 349 348 348 347 350 349 344 354 333 321 316 324 332 317 290 291 309 217 172 177 169 184 53 337 335 356 121 125 111 66 36 38 35 27 50 323 212 178 183 173 183 193 196 201
345 345 346 346 344 349 344 343 340 334 316 312 310 315 284 259 286 291 262 173 169 188 231 309 352 346 69 115 47 66 61 82 348 89 15 55 247 251 173 182 176 185 191 201 205
341 342 343 345 342 347 341 338 334 323 290 330 300 287 269 270 218 307 275 219 186 288 271 260 181 96 112 89 30 17 155 187 336 171 93 94 261 343 190 190 181 183 188 196 201
338 339 339 344 341 345 346 336 328 307 285 314 291 250 251 173 326 298 235 244 266 297 250 207 135 77 39 76 188 178 118 162 221 208 131 191 258 288 206 197 186 183 185 190 196
335 336 337 342 339 343 349 348 1 347 311 279 271 269 279 281 306 212 241 239 248 285 164 21 79 182 185 173 143 113 123 180 233 216 144 215 232 254 227 198 190 191 187 185 187
333 334 334 343 339 350 353 51 32 318 300 300 279 260 255 265 296 225 197 176 169 208 89 22 260 219 144 152 156 171 192 217 222 268 185 155 237 249 211 223 201 197 192 191 186
331 332 334 344 342 353 358 12 347 334 274 307 270 242 234 227 224 243 215 196 154 146 169 159 231 142 163 158 179 207 203 199 191 90 29 110 310 201 228 214 220 219 213 204 200
330 330 335 343 355 339 336 329 332 332 31 281 265 242 168 153 234 235 241 202 131 195 159 229 266 252 148 244 163 222 205 168 131 130 211 174 260 254 214 209 203 217 215 215 211
330 329 331 336 326 333 312 320 331 3 353 259 247 154 171 175 154 211 219 194 170 189 122 241 192 230 257 221 174 225 137 163 108 147 99 225 79 270 146 206 223 221 222 223 221
328 326 323 322 322 332 319 325 334 46 257 321 121 157 150 218 190 111 153 187 208 158 226 229 246 230 217 153 180 144 68 48 53 82 76 224 146 279 196 212 220 223 229 229 225
322 321 315 311 315 304 313 330 46 155 320 306 339 15 190 211 264 171 153 172 165 121 277 308 236 265 212 109 51 66 73 6 346 355 221 107 90 236 227 241 233 239 235 234 227
321 321 312 312 304 279 263 54 188 236 256 316 335 298 180 162 221 227 147 224 174 101 94 177 312 188 177 196 177 175 155 155 194 200 240 69 232 250 208 215 253 258 256 246 223
325 326 317 309 289 216 167 106 210 207 281 349 319 70 344 22 202 110 201 225 204 169 170 171 271 279 225 161 134 175 181 168 102 16 48 233 290 312 285 298 321 285 257 224 212
332 333 329 309 305 173 97 227 240 242 352 354 292 20 277 328 61 106 198 239 262 189 121 189 289 236 208 100 37 158 154 83 12 138 230 284 278 230 254 255 263 237 197 196 204
334 324 344 288 158 174 172 229 263 254 239 223 270 295 248 291 246 245 218 273 179 70 163 140 145 265 343 202 181 139 191 54 116 128 173 205 261 217 220 218 227 236 225 209 212
330 332 120 131 64 79 184 204 251 258 212 271 226 236 236 279 322 272 231 233 178 160 146 190 154 234 216 216 213 203 172 141 129 222 201 156 264 225 231 237 223 240 234 226 225
335 279 240 217 188 233 267 263 256 253 220 223 267 215 189 193 319 231 251 266 216 173 168 179 140 345 331 353 351 199 193 123 112 89 191 153 256 246 258 250 244 238 234 232 230
331 341 300 217 299 270 291 237 238 253 255 239 246 263 277 257 217 265 251 278 219 161 152 140 141 164 198 223 200 195 188 168 134 129 193 210 238 274 254 228 229 233 245 244 239
333 320 337 310 8 350 311 312 249 225 238 216 293 133 22 267 293 218 241 308 270 190 109 131 200 180 240 234 220 257 224 174 190 200 183 235 192 242 243 231 248 273 277 256 237
307 358 339 291 309 313 255 270 244 311 223 245 254 286 225 216 223 263 251 209 229 250 149 0 203 162 261 273 227 256 260 226 246 222 271 264 272 228 273 284 282 278 281 258 245
276 285 301 290 327 5 274 331 339 342 281 266 34 317 258 248 302 288 266 255 233 220 190 159 142 127 238 254 331 290 195 207 209 197 192 225 234 259 271 270 272 281 278 272 261